Location: Litvinovka
(48.6667°N, 34.3500°E)
Time: 01:19:27
(UTC+00:00)

USA 234 - Pass Details

Date: 18 September 2020
Orbit: 1102 x 1106 km, 123.0° (Epoch: 16 October)

Event Time Altitude Azimuth Distance (km) Brightness Sun altitude
Rises 21:54:54 0° 79° (E) 3,921 6.3 -39.8°
Reaches altitude 10° 21:57:29 10° 74° (ENE) 2,963 5.7 -39.7°
Enters shadow 22:03:22 44° 10° (N) 1,496 4.2 -39.6°
Exits shadow 22:06:55 25° 310° (NW) 2,049 4.8 -39.5°
Drops below altitude 10° 22:09:41 10° 296° (WNW) 2,967 5.6 -39.4°
Sets 22:12:17 0° 291° (WNW) 3,926 6.3 -39.3°
